N6DZK Weather Reports


time (UTC)temp
F
wind
direction
speed
knots
gust
knots
rain 1hr
in
rain 24hr
in
rain mn
in
humidity
%
barometer
mb
20260507015232 72 323 0.0 2.6 0.00 0.00 0.00 55 1017.4
20260507014728 73 43 1.7 3.5 0.00 0.00 0.00 55 1017.5
20260507014225 73 262 1.7 2.6 0.00 0.00 0.00 54 1017.4
20260507013721 73 25 0.0 3.5 0.00 0.00 0.00 54 1017.5
20260507013219 74 345 0.9 3.5 0.00 0.00 0.00 53 1017.4
20260507012716 75 1 0.9 2.6 0.00 0.00 0.00 52 1017.4
20260507012217 76 39 1.7 3.5 0.00 0.00 0.00 51 1017.4
20260507011715 76 351 0.0 2.6 0.00 0.00 0.00 51 1017.2
20260507011211 76 288 0.0 1.7 0.00 0.00 0.00 51 1017.1
20260507010710 76 3 0.0 4.3 0.00 0.00 0.00 51 1017.2
20260507010207 77 334 1.7 3.5 0.00 0.00 0.00 51 1017.0
20260507005705 77 17 0.9 2.6 0.00 0.00 0.00 51 1016.9
20260507005200 77 7 1.7 3.5 0.00 0.00 0.00 50 1017.0
20260507004657 77 308 2.6 2.6 0.00 0.00 0.00 51 1017.1
20260507004155 77 37 3.5 4.3 0.00 0.00 0.00 49 1017.0
20260507003651 78 260 1.7 3.5 0.00 0.00 0.00 49 1016.9
20260507003151 77 272 1.7 2.6 0.00 0.00 0.00 49 1017.1
20260507002648 77 78 1.7 3.5 0.00 0.00 0.00 49 1017.0
20260507002144 77 9 0.0 3.5 0.00 0.00 0.00 49 1017.1
20260507001641 78 344 2.6 6.1 0.00 0.00 0.00 48 1017.1
20260507001138 79 29 0.9 2.6 0.00 0.00 0.00 47 1017.0
20260507000634 79 321 1.7 2.6 0.00 0.00 0.00 47 1017.0
20260507000130 79 343 3.5 3.5 0.00 0.00 0.00 47 1017.0
20260506235627 79 352 1.7 2.6 0.00 0.00 0.00 47 1016.9
20260506235127 79 12 1.7 4.3 0.00 0.00 0.00 47 1016.8
20260506234625 79 355 3.5 4.3 0.00 0.00 0.00 46 1016.8
20260506234122 80 349 0.9 2.6 0.00 0.00 0.00 47 1016.9
20260506233619 80 336 0.9 3.5 0.00 0.00 0.00 45 1016.9
20260506233116 80 314 1.7 3.5 0.00 0.00 0.00 46 1016.9
20260506232612 80 16 1.7 4.3 0.00 0.00 0.00 46 1016.9
20260506232107 80 294 0.9 3.5 0.00 0.00 0.00 46 1016.9
20260506231605 80 0 1.7 3.5 0.00 0.00 0.00 45 1016.9
20260506231103 80 350 2.6 2.6 0.00 0.00 0.00 45 1017.0
20260506230559 80 325 1.7 4.3 0.00 0.00 0.00 45 1016.9
20260506230056 80 351 1.7 3.5 0.00 0.00 0.00 45 1017.3
20260506225553 80 304 1.7 3.5 0.00 0.00 0.00 45 1017.1
20260506225049 80 269 1.7 3.5 0.00 0.00 0.00 46 1017.2
20260506224547 79 18 1.7 4.3 0.00 0.00 0.00 46 1017.4
20260506224043 80 14 1.7 5.2 0.00 0.00 0.00 45 1017.4
20260506223539 80 6 1.7 3.5 0.00 0.00 0.00 45 1017.2
20260506223036 79 36 1.7 2.6 0.00 0.00 0.00 47 1017.5
20260506222533 80 311 2.6 3.5 0.00 0.00 0.00 45 1017.6
20260506222029 80 358 2.6 2.6 0.00 0.00 0.00 45 1017.6
20260506221526 80 327 2.6 2.6 0.00 0.00 0.00 45 1017.4
20260506221025 80 11 1.7 3.5 0.00 0.00 0.00 45 1017.7
20260506220520 80 23 0.9 3.5 0.00 0.00 0.00 44 1017.9
20260506220016 80 341 0.0 2.6 0.00 0.00 0.00 45 1017.9
20260506215513 80 341 0.9 3.5 0.00 0.00 0.00 46 1018.1
20260506215008 80 340 2.6 2.6 0.00 0.00 0.00 46 1018.2
20260506214506 79 355 1.7 2.6 0.00 0.00 0.00 46 1018.0
20260506214003 78 47 1.7 3.5 0.00 0.00 0.00 47 1018.4
20260506213501 78 20 3.5 3.5 0.00 0.00 0.00 47 1018.4
20260506212958 78 11 0.9 3.5 0.00 0.00 0.00 46 1018.3
20260506212454 78 23 2.6 2.6 0.00 0.00 0.00 47 1018.4
20260506211948 78 286 0.0 3.5 0.00 0.00 0.00 47 1018.4
20260506211445 77 358 0.9 3.5 0.00 0.00 0.00 48 1018.5
20260506210942 77 321 0.9 4.3 0.00 0.00 0.00 46 1018.5
20260506210438 77 358 0.9 3.5 0.00 0.00 0.00 48 1018.5
20260506205936 77 41 3.5 3.5 0.00 0.00 0.00 48 1018.4
20260506205432 77 42 3.5 3.5 0.00 0.00 0.00 48 1018.7
20260506204928 77 330 0.9 2.6 0.00 0.00 0.00 50 1018.8
20260506204426 77 21 2.6 4.3 0.00 0.00 0.00 47 1018.7
20260506203923 77 314 1.7 4.3 0.00 0.00 0.00 49 1018.6
20260506203420 77 312 0.0 1.7 0.00 0.00 0.00 48 1018.8
20260506202917 76 355 1.7 3.5 0.00 0.00 0.00 49 1019.0
20260506202414 77 7 2.6 3.5 0.00 0.00 0.00 49 1018.9
20260506201911 77 331 0.0 2.6 0.00 0.00 0.00 50 1018.9
20260506201409 77 316 3.5 3.5 0.00 0.00 0.00 48 1018.9
20260506200905 76 336 0.9 4.3 0.00 0.00 0.00 50 1019.2
20260506200401 77 312 0.9 2.6 0.00 0.00 0.00 47 1019.0
20260506195858 76 331 2.6 2.6 0.00 0.00 0.00 50 1019.1
20260506195355 76 323 1.7 1.7 0.00 0.00 0.00 50 1019.0
20260506194851 76 359 0.0 2.6 0.00 0.00 0.00 48 1019.4
20260506194348 75 339 0.9 1.7 0.00 0.00 0.00 52 1019.2
20260506193846 75 108 0.9 2.6 0.00 0.00 0.00 49 1019.3
20260506193342 75 292 0.9 2.6 0.00 0.00 0.00 51 1019.3
20260506192839 75 316 1.7 2.6 0.00 0.00 0.00 51 1019.6
20260506192336 74 324 0.0 1.7 0.00 0.00 0.00 52 1019.4
20260506191833 75 327 0.9 3.5 0.00 0.00 0.00 51 1019.5
20260506191329 75 330 0.0 1.7 0.00 0.00 0.00 51 1019.6
20260506190826 75 345 1.7 3.5 0.00 0.00 0.00 51 1019.6
20260506190322 75 324 1.7 2.6 0.00 0.00 0.00 51 1019.8
20260506185819 75 338 0.9 1.7 0.00 0.00 0.00 53 1019.7
20260506185316 74 31 0.9 2.6 0.00 0.00 0.00 52 1020.0
20260506184813 74 9 0.9 2.6 0.00 0.00 0.00 53 1019.9
20260506184311 72 333 0.0 2.6 0.00 0.00 0.00 54 1019.8
20260506183808 73 12 1.7 3.5 0.00 0.00 0.00 52 1019.7
20260506183303 72 22 0.9 1.7 0.00 0.00 0.00 55 1019.9
20260506182800 73 353 0.9 2.6 0.00 0.00 0.00 52 1019.9
20260506182257 73 3 0.0 2.6 0.00 0.00 0.00 54 1020.0
20260506181755 74 318 0.0 1.7 0.00 0.00 0.00 53 1019.8
20260506181253 73 307 0.9 1.7 0.00 0.00 0.00 52 1019.9
20260506180749 72 10 1.7 2.6 0.00 0.00 0.00 54 1019.8
20260506180245 72 9 0.9 2.6 0.00 0.00 0.00 55 1019.9
20260506175742 72 342 2.6 3.5 0.00 0.00 0.00 54 1020.0
20260506175239 72 321 0.9 2.6 0.00 0.00 0.00 56 1020.0
20260506174737 71 71 0.9 2.6 0.00 0.00 0.00 55 1020.0
20260506174233 71 0 1.7 2.6 0.00 0.00 0.00 54 1020.0
20260506173731 72 308 0.9 1.7 0.00 0.00 0.00 54 1020.0
20260506173227 71 37 0.0 2.6 0.00 0.00 0.00 54 1020.0
20260506172724 71 31 0.9 1.7 0.00 0.00 0.00 56 1019.9
20260506172221 70 309 0.0 2.6 0.00 0.00 0.00 56 1020.2
20260506171719 71 344 0.0 2.6 0.00 0.00 0.00 55 1019.9
20260506171216 70 337 0.9 1.7 0.00 0.00 0.00 55 1020.1
20260506170713 70 356 0.9 1.7 0.00 0.00 0.00 60 1020.2
20260506170210 69 309 0.0 2.6 0.00 0.00 0.00 59 1020.2
20260506165708 69 58 2.6 2.6 0.00 0.00 0.00 58 1020.2
20260506165205 69 352 0.9 3.5 0.00 0.00 0.00 57 1020.1
20260506164702 69 302 0.0 1.7 0.00 0.00 0.00 58 1020.4
20260506164159 70 346 0.9 1.7 0.00 0.00 0.00 57 1020.1
20260506163655 69 47 1.7 1.7 0.00 0.00 0.00 59 1020.3
20260506163150 68 31 0.9 1.7 0.00 0.00 0.00 61 1020.4
20260506162647 68 358 0.9 2.6 0.00 0.00 0.00 60 1020.4
20260506162144 68 53 0.0 1.7 0.00 0.00 0.00 60 1020.3
20260506161641 69 34 0.9 1.7 0.00 0.00 0.00 59 1020.5
20260506161138 69 82 0.0 1.7 0.00 0.00 0.00 60 1020.3
20260506160636 68 310 0.0 1.7 0.00 0.00 0.00 61 1020.6
20260506160132 68 323 0.0 1.7 0.00 0.00 0.00 63 1020.4
20260506155632 68 37 0.0 0.9 0.00 0.00 0.00 62 1020.4
20260506155128 66 19 0.0 0.9 0.00 0.00 0.00 64 1020.7
20260506153230 66 63 0.0 1.7 0.00 0.00 0.00 66 1020.6
20260506152727 64 89 1.7 1.7 0.00 0.00 0.00 66 1020.7
20260506152224 65 103 0.0 1.7 0.00 0.00 0.00 66 1020.8
20260506151724 63 69 0.0 0.9 0.00 0.00 0.00 69 1020.8
20260506151219 63 49 0.0 1.7 0.00 0.00 0.00 68 1020.8
20260506150716 63 76 1.7 1.7 0.00 0.00 0.00 69 1020.8
20260506150213 63 52 0.0 1.7 0.00 0.00 0.00 69 1020.7
20260506145710 61 50 0.0 0.9 0.00 0.00 0.00 75 1020.8
20260506145206 58 100 0.0 0.9 0.00 0.00 0.00 85 1020.9
20260506144704 55 113 0.0 0.0 0.00 0.00 0.00 90 1020.8
20260506144201 54 71 0.0 0.9 0.00 0.00 0.00 92 1021.0
20260506143658 53 102 0.0 0.9 0.00 0.00 0.00 93 1021.0
20260506143156 52 89 0.0 1.7 0.00 0.00 0.00 93 1021.0
20260506142655 52 89 0.0 0.9 0.00 0.00 0.00 93 1021.0
20260506142152 52 102 0.0 0.9 0.00 0.00 0.00 94 1020.9
20260506141649 53 96 0.0 0.9 0.00 0.00 0.00 95 1020.8
20260506141148 53 95 0.0 1.7 0.00 0.00 0.00 96 1020.6
20260506140645 53 66 0.0 1.7 0.00 0.00 0.00 97 1020.7
20260506140142 51 99 0.0 0.9 0.00 0.00 0.00 97 1020.5
20260506135639 49 95 0.9 1.7 0.00 0.00 0.00 97 1020.4
20260506135135 49 121 0.0 1.7 0.00 0.00 0.00 97 1020.3
20260506134632 48 113 0.0 1.7 0.00 0.00 0.00 96 1020.4
20260506134127 48 89 0.0 1.7 0.00 0.00 0.00 96 1020.1
20260506133625 48 92 0.9 1.7 0.00 0.00 0.00 96 1020.3
20260506133122 48 89 0.9 1.7 0.00 0.00 0.00 96 1020.1
20260506132619 48 89 0.9 0.9 0.00 0.00 0.00 96 1020.1
20260506132116 48 96 0.0 0.9 0.00 0.00 0.00 96 1020.0
20260506131613 48 101 0.9 1.7 0.00 0.00 0.00 96 1020.0
20260506131109 48 102 0.0 1.7 0.00 0.00 0.00 96 1020.1
20260506130607 48 75 0.0 1.7 0.00 0.00 0.00 96 1019.9
20260506130104 48 99 0.9 0.9 0.00 0.00 0.00 96 1019.9
20260506125602 48 110 0.0 0.9 0.00 0.00 0.00 96 1020.0
20260506125100 48 89 0.0 0.9 0.00 0.00 0.00 96 1019.8
20260506124557 48 124 0.9 1.7 0.00 0.00 0.00 96 1019.8
20260506124055 48 93 0.0 1.7 0.00 0.00 0.00 95 1019.7
20260506123552 48 120 0.9 1.7 0.00 0.00 0.00 95 1019.7
20260506123051 48 127 0.0 0.9 0.00 0.00 0.00 95 1019.6
20260506122547 48 112 0.0 1.7 0.00 0.00 0.00 95 1019.6
20260506122045 48 88 0.9 1.7 0.00 0.00 0.00 95 1019.7
20260506121542 48 103 0.9 1.7 0.00 0.00 0.00 95 1019.5
20260506121038 48 101 0.0 0.9 0.00 0.00 0.00 95 1019.7
20260506120537 48 129 0.9 1.7 0.00 0.00 0.00 95 1019.6
20260506120034 48 108 0.9 1.7 0.00 0.00 0.00 95 1019.7
20260506115532 48 114 0.0 0.9 0.00 0.00 0.00 95 1019.6
20260506115030 48 93 0.9 1.7 0.00 0.00 0.00 95 1019.8
20260506114527 48 95 0.0 0.9 0.00 0.00 0.00 95 1019.4
20260506114025 48 102 0.0 0.9 0.00 0.00 0.00 95 1019.3
20260506113523 48 97 0.0 0.9 0.00 0.00 0.00 95 1019.3
20260506113020 48 100 0.9 0.9 0.00 0.00 0.00 94 1019.5
20260506112516 48 101 0.0 0.9 0.00 0.00 0.00 94 1019.2
20260506112014 48 89 0.0 0.9 0.00 0.00 0.00 94 1019.3
20260506111512 49 94 0.0 0.9 0.00 0.00 0.00 94 1019.4
20260506111008 49 99 0.0 0.9 0.00 0.00 0.00 94 1019.3
20260506110506 49 100 0.9 0.9 0.00 0.00 0.00 94 1019.5
20260506110003 49 102 0.0 0.9 0.00 0.00 0.00 94 1019.4
20260506105459 49 80 0.0 0.9 0.00 0.00 0.00 94 1019.4
20260506104957 49 102 0.0 0.9 0.00 0.00 0.00 94 1019.3
20260506104454 50 113 0.0 0.9 0.00 0.00 0.00 94 1019.4
20260506103953 49 124 0.0 0.9 0.00 0.00 0.00 93 1019.5
20260506103449 50 89 0.0 0.0 0.00 0.00 0.00 93 1019.2
20260506102946 50 76 0.0 0.0 0.00 0.00 0.00 93 1019.3
20260506102444 50 119 0.0 0.9 0.00 0.00 0.00 92 1019.3
20260506101941 50 89 0.0 0.9 0.00 0.00 0.00 93 1019.4
20260506101438 50 98 0.9 1.7 0.00 0.00 0.00 92 1019.1
20260506100935 50 80 0.0 0.9 0.00 0.00 0.00 91 1019.0
20260506100433 51 100 0.0 0.9 0.00 0.00 0.00 91 1018.9
20260506095931 51 103 0.0 0.9 0.00 0.00 0.00 91 1019.2
20260506095429 51 92 0.0 0.9 0.00 0.00 0.00 91 1019.0
20260506094925 51 99 0.0 0.9 0.00 0.00 0.00 91 1019.4
20260506094424 52 111 0.0 0.0 0.00 0.00 0.00 91 1019.0
20260506093921 52 110 0.0 0.9 0.00 0.00 0.00 91 1019.1
20260506093419 52 102 0.0 0.0 0.00 0.00 0.00 91 1019.3
20260506092916 53 103 0.0 0.0 0.00 0.00 0.00 91 1019.1
20260506092414 53 110 0.0 0.0 0.00 0.00 0.00 92 1019.3
20260506091910 53 55 0.0 0.0 0.00 0.00 0.00 92 1019.3
20260506091409 52 69 0.0 0.0 0.00 0.00 0.00 92 1019.4
20260506090905 52 44 0.0 0.0 0.00 0.00 0.00 92 1019.4
20260506090403 52 69 0.0 0.9 0.00 0.00 0.00 91 1019.5
20260506085900 52 72 0.0 0.9 0.00 0.00 0.00 91 1019.5
20260506085356 52 113 0.0 0.0 0.00 0.00 0.00 91 1019.2
20260506084852 52 89 0.0 0.0 0.00 0.00 0.00 91 1019.2
20260506084349 53 69 0.0 0.9 0.00 0.00 0.00 91 1019.1
20260506083846 53 87 0.0 0.9 0.00 0.00 0.00 90 1019.1
20260506083344 53 119 0.0 0.0 0.00 0.00 0.00 90 1019.2
20260506082841 53 77 0.0 0.0 0.00 0.00 0.00 90 1019.0
20260506082337 53 103 0.0 0.0 0.00 0.00 0.00 90 1019.3
20260506081833 53 103 0.0 0.0 0.00 0.00 0.00 90 1019.0
20260506081332 53 110 0.0 0.0 0.00 0.00 0.00 89 1019.2
20260506080829 53 55 0.0 0.0 0.00 0.00 0.00 89 1019.2
20260506080325 53 129 0.0 0.0 0.00 0.00 0.00 89 1019.2
20260506073310 55 76 0.0 0.9 0.00 0.00 0.00 86 1018.8
20260506072806 55 80 0.0 0.0 0.00 0.00 0.00 85 1018.9
20260506072305 55 110 0.0 0.9 0.00 0.00 0.00 85 1018.9
20260506071801 56 76 0.0 0.0 0.00 0.00 0.00 85 1018.8
20260506071259 55 113 0.0 1.7 0.00 0.00 0.00 85 1018.9
20260506070756 55 89 0.0 0.0 0.00 0.00 0.00 86 1018.7
20260506070253 55 76 0.0 0.9 0.00 0.00 0.00 86 1018.6
20260506062230 55 99 0.0 0.9 0.00 0.00 0.00 86 1018.3
20260506061726 55 113 0.0 0.9 0.00 0.00 0.00 86 1018.4
20260506061224 55 107 0.0 0.0 0.00 0.00 0.00 85 1018.3
20260506060722 55 129 0.0 0.0 0.00 0.00 0.00 85 1018.4
20260506060218 56 44 0.0 0.9 0.00 0.00 0.00 84 1018.3
20260506051151 58 129 0.0 0.0 0.00 0.00 0.00 80 1018.0
20260506050649 58 129 0.0 0.0 0.00 0.00 0.00 79 1017.8
20260506050146 58 50 0.0 0.0 0.00 0.00 0.00 78 1018.0
20260506044637 58 80 0.0 0.9 0.00 0.00 0.00 77 1017.7
20260506044133 58 49 0.0 0.0 0.00 0.00 0.00 78 1017.7
20260506043631 59 22 0.0 0.0 0.00 0.00 0.00 77 1017.7
20260506043129 59 138 0.0 0.0 0.00 0.00 0.00 77 1017.6
20260506042627 59 50 0.0 0.0 0.00 0.00 0.00 77 1017.6
20260506042125 59 66 0.0 0.9 0.00 0.00 0.00 77 1017.5
20260506041624 58 59 0.9 0.9 0.00 0.00 0.00 78 1017.4
20260506041120 58 60 0.0 0.9 0.00 0.00 0.00 79 1017.2
20260506040618 58 89 0.0 0.9 0.00 0.00 0.00 80 1017.4
20260506040114 58 99 0.0 0.0 0.00 0.00 0.00 80 1017.4
20260506035611 58 125 0.0 0.0 0.00 0.00 0.00 81 1017.5
20260506035108 58 129 0.0 0.0 0.00 0.00 0.00 81 1017.3
20260506034605 58 50 0.0 0.0 0.00 0.00 0.00 81 1017.1
20260506034102 58 142 0.0 0.0 0.00 0.00 0.00 80 1016.9
20260506033559 58 110 0.0 0.0 0.00 0.00 0.00 80 1016.8
20260506033056 58 69 0.0 0.0 0.00 0.00 0.00 80 1016.8
20260506032553 58 89 0.0 0.0 0.00 0.00 0.00 79 1016.7
20260506032050 59 101 0.0 0.0 0.00 0.00 0.00 79 1016.5
20260506031548 59 50 0.0 0.0 0.00 0.00 0.00 78 1016.4
20260506031044 59 50 0.0 0.0 0.00 0.00 0.00 78 1016.5
20260506030543 59 113 0.0 0.0 0.00 0.00 0.00 78 1016.3
20260506030039 59 103 0.0 0.9 0.00 0.00 0.00 77 1016.4
20260506025536 60 110 0.0 0.0 0.00 0.00 0.00 77 1016.2
20260506025032 60 66 0.0 0.0 0.00 0.00 0.00 76 1016.2
20260506024529 60 55 0.0 0.9 0.00 0.00 0.00 76 1016.0
20260506024026 60 66 0.0 0.0 0.00 0.00 0.00 76 1016.1
20260506023522 60 50 0.0 0.0 0.00 0.00 0.00 75 1016.0
20260506023020 61 55 0.0 0.0 0.00 0.00 0.00 75 1016.1
20260506022517 61 37 0.0 0.0 0.00 0.00 0.00 74 1015.8
20260506022014 61 32 0.0 0.0 0.00 0.00 0.00 74 1016.1
20260506021512 61 60 0.0 0.0 0.00 0.00 0.00 74 1016.0
20260506021009 61 78 0.9 0.9 0.00 0.00 0.00 73 1016.1
20260506020506 61 116 0.0 0.9 0.00 0.00 0.00 74 1016.0
20260506020004 61 89 0.0 0.0 0.00 0.00 0.00 74 1016.2